Fort Greely, AK

9:09 AM AKST on December 02, 2016 (GMT -0900)
Allen Army Air Field

Weather History for PABI - June, 2013

Change the Weather History Date:

Saturday, June 15, 2013

  Actual Average Record
Temperature  
Mean Temperature 66 °F -  
Max Temperature 82 °F 66 °F 82 °F (2013)
Min Temperature 51 °F 47 °F 41 °F (2016)
Cooling Degree Days 2    
Growing Degree Days 16 (Base 50)    
Moisture  
Dew Point 34 °F    
Average Humidity 28    
Maximum Humidity 55    
Minimum Humidity 7    
Precipitation  
Precipitation 0.00 in - - ()
Sea Level Pressure  
Sea Level Pressure 30.23 in    
Wind  
Wind Speed 5 mph (South)    
Max Wind Speed 13 mph    
Max Gust Speed -    
Visibility 10 miles    
Events      
Averages and records for this station are not official NWS values.
T = Trace of Precipitation, MM = Missing Value Source: NWS Daily Summary

Daily Weather History Graph

Daily Weather History Graph

Search for Another Location

Airport or City:

Trip Planner

Search our weather history database for the weather conditions in past years. The results will help you decide how hot, cold, wet, or windy it might be!

Date:

Astronomy

Jun. 15, 2013 Rise Set
Actual Time 3:15 AM AKDT 12:12 AM AKDT
Civil Twilight Sun does not rise Sun does not rise
Nautical Twilight Sun does not rise Sun does not rise
Astronomical Twilight Sun does not rise Sun does not rise
Moon 12:48 PM AKDT (6/15) 1:12 AM AKDT (6/15)
Length of Visible Light 24h 00m
Length of Day
20h 56m
Waxing Crescent, 41% of the Moon is Illuminated
Jun 15
Waxing Crescent
Jun 16
First Quarter
Jun 23
Full
Jun 29
Last Quarter
Jul 7
New

Hourly Weather History & Observations

Time (AKDT) Temp. Dew Point Humidity Pressure Visibility Wind Dir Wind Speed Gust Speed Precip Events Conditions
12:53 AM 63.0 °F 37.0 °F 38% 30.22 in 10.0 mi SW 12.7 mph - N/A   Clear
1:53 AM 59.0 °F 37.9 °F 46% 30.23 in 10.0 mi SSW 10.4 mph - N/A   Clear
2:53 AM 59.0 °F 36.0 °F 42% 30.25 in 10.0 mi SSW 6.9 mph - N/A   Clear
3:53 AM 55.0 °F 37.0 °F 51% 30.26 in 10.0 mi South 4.6 mph - N/A   Clear
4:53 AM 53.1 °F 37.0 °F 55% 30.27 in 10.0 mi SE 3.5 mph - N/A   Clear
5:53 AM 55.0 °F 37.0 °F 51% 30.28 in 10.0 mi Calm Calm - N/A   Scattered Clouds
6:53 AM 57.9 °F 39.0 °F 49% 30.28 in 10.0 mi Calm Calm - N/A   Partly Cloudy
7:53 AM 60.1 °F 39.0 °F 46% 30.28 in 10.0 mi Calm Calm - N/A   Scattered Clouds
8:53 AM 64.9 °F 41.0 °F 42% 30.27 in 10.0 mi East 3.5 mph - N/A   Mostly Cloudy
9:53 AM 70.0 °F 41.0 °F 35% 30.27 in 10.0 mi East 3.5 mph - N/A   Mostly Cloudy
10:53 AM 73.0 °F 39.9 °F 30% 30.26 in 10.0 mi Calm Calm - N/A   Mostly Cloudy
11:53 AM 75.0 °F 37.0 °F 25% 30.25 in 10.0 mi Variable 3.5 mph - N/A   Mostly Cloudy
12:53 PM 77.0 °F 34.0 °F 21% 30.24 in 10.0 mi Calm Calm - N/A   Mostly Cloudy
1:53 PM 78.1 °F 24.1 °F 14% 30.23 in 10.0 mi Variable 4.6 mph - N/A   Mostly Cloudy
2:53 PM 80.1 °F 28.0 °F 15% 30.22 in 10.0 mi Calm Calm - N/A   Mostly Cloudy
3:53 PM 79.0 °F 27.0 °F 15% 30.21 in 10.0 mi Calm Calm - N/A   Mostly Cloudy
4:53 PM 81.0 °F 28.9 °F 15% 30.20 in 10.0 mi North 5.8 mph - N/A   Scattered Clouds
5:53 PM 81.0 °F 28.9 °F 15% 30.19 in 10.0 mi Calm Calm - N/A   Scattered Clouds
6:53 PM 81.0 °F 28.9 °F 15% 30.18 in 10.0 mi Calm Calm - N/A   Scattered Clouds
7:53 PM 82.0 °F 30.0 °F 15% 30.18 in 10.0 mi Calm Calm - N/A   Scattered Clouds
8:53 PM 81.0 °F 30.9 °F 16% 30.17 in 10.0 mi North 4.6 mph - N/A   Scattered Clouds
9:30 PM 80.6 °F 33.8 °F 18% 30.19 in 10.0 mi Calm Calm - N/A   Scattered Clouds
9:53 PM 80.1 °F 32.0 °F 17% 30.17 in 10.0 mi Calm Calm - N/A   Clear
10:53 PM 73.0 °F 39.9 °F 30% 30.18 in 10.0 mi Calm Calm - 0.00 in   Clear
11:53 PM 69.1 °F 37.0 °F 31% 30.20 in 10.0 mi SW 10.4 mph - N/A   Clear